Regional Weather Roundup
Issued by NWS Wakefield, VA

Home | Current Version | Previous Version | Graphics & Text | Print | Product List | Glossary On
Versions: 1 2 3 4 5 6 7 8 9 10 11 12 13 14 15 16 17 18 19 20 21 22 23 24 25 26 27 28 29 30 31 32 33 34 35 36 37 38 39 40 41 42 43 44 45 46 47 48 49 50
000
ASUS41 KAKQ 271810
RWRAKQ

REGIONAL WEATHER ROUNDUP
NATIONAL WEATHER SERVICE WAKEFIELD VA
100 PM EST FRI FEB 27 2015

Note: "fair" indicates few or no clouds below 12,000 feet with no
significant weather and/or obstructions to visibility. * = Denotes
station may not report precipitation (e.g., rain,snow,etc.),
thunder or fog.

VAZ042-051-052>054-056-271900-
NORTHERN VIRGINIA

CITY           SKY/WX    TMP DP  RH WIND       PRES   REMARKS
WASH NATIONAL  PTSUNNY   34  12  40 NW13      30.45S WCI  25
DULLES         MOSUNNY   28   9  44 NW15      30.44S WCI  16
FORT BELVOIR   SUNNY     32  10  40 NW12G20   30.44S WCI  23
QUANTICO       PTSUNNY   33  12  41 N21       30.46R WCI  21
FREDERICKSBRG* PTSUNNY   34  14  44 N6        30.43S
STAFFORD*      MOSUNNY   33  13  43 NW13G20   30.48R WCI  24
WARRENTON      SUNNY     33  18  55 N12       30.43S WCI  24
CULPEPER*      MOSUNNY   34  14  44 N9        30.43F
MANASSAS*      SUNNY     34  12  40 N13G21    30.44F WCI  25
LEESBURG*      SUNNY     30  14  51 NW9       30.45S
WINCHESTER     SUNNY     32   5  32 NW16      30.42S WCI  21
FRONT ROYAL*   FAIR      30   9  40 N6        30.40S
LURAY*         FAIR      34  16  47 NW7       30.38F
$$

VAZ048-049-060>072-079>083-271900-
CENTRAL AND SOUTH CENTRAL VIRGINIA

CITY           SKY/WX    TMP DP  RH WIND       PRES   REMARKS
RICHMOND       CLOUDY    34  25  69 N8        30.42R
CHESTERFIELD*  CLOUDY    36  18  48 N9        30.42S
PETERSBURG*    CLOUDY    38  30  73 NE10      30.40S
HANOVER        CLOUDY    34  23  64 VRB5      30.43S
TAPPAHANNOCK*  CLOUDY    31  18  56 N6        30.44R
QUINTON*       CLOUDY    32  27  79 N5        30.42S
CHARLOTTSVILLE MOSUNNY   36  18  48 NE7       30.37S
GORDONSVILLE*  CLOUDY    32  15  49 N7        30.39F
ORANGE*        MOSUNNY   34  16  47 N7        30.42S
LOUISA*        MOSUNNY   36  19  51 N7        30.38F
BUMPASS*       CLOUDY    32  15  50 N3        30.41S
FARMVILLE*     CLOUDY    45  20  38 SW3       30.37F
CREWE*         MOCLDY    39  22  51 NW7       30.38S
FORT PICKETT*  MOCLDY    39  24  56 N9        30.38S
CHASE CITY*    FAIR      42  22  46 NW7       30.38S
CLARKSVILLE*   FAIR      41  19  42 NW8       30.38S
SOUTH HILL*    MOSUNNY   39  19  44 NW6       30.43F
LAWRENCEVILLE* FAIR      41  22  46 W5        30.37S
EMPORIA*       MOSUNNY   41  21  45 W8        30.39S
$$

VAZ088>098-271900-
SOUTHEAST VIRGINIA

CITY           SKY/WX    TMP DP  RH WIND       PRES   REMARKS
NORFOLK        CLOUDY    34  23  64 N9        30.40R
VIRGINIA BEACH PTSUNNY   40  26  57 N7        30.39R
NORFOLK NAVAL  PTSUNNY   36  24  62 NE12      30.41R
WEST POINT*    CLOUDY    35  26  68 N5        30.44S
SALUDA*        CLOUDY    31  26  80 N3        30.42S
NEWPORT NEWS   LGT RAIN  36  26  67 E9        30.41R
LANGLEY AFB    CLOUDY    33  23  67 NE10      30.41R WCI  24
FORT EUSTIS    PTSUNNY   38  28  69 E6        30.38R
WILLIAMSBURG*  MOSUNNY   39  32  75 NE7       30.41S
HR EXEC AP*    MOCLDY    39  27  60 N6        30.40F
FRANKLIN*      PTSUNNY   41  27  56 NW5       30.38F
WAKEFIELD      PTSUNNY   44  28  53 N8        30.38S
$$

VAZ020-022-025-037-045-271900-
WEST CENTRAL AND SOUTHWEST VIRGINIA

CITY           SKY/WX    TMP DP  RH WIND       PRES   REMARKS
STAUNTON*      MOSUNNY   32  14  47 NE3       30.37F
WAYNESBORO*    FAIR      32  12  43 SW12      30.34S WCI  23
HOT SPRINGS VA LGT SNOW  21   7  55 W16G22    30.19S WCI   7
LYNCHBURG      SUNNY     35  13  40 W9        30.39F
DANVILLE       MOSUNNY   40  19  43 N9        30.40S
SOUTH BOSTON*  FAIR      38  16  40 NW9G16    30.41R
MARTINSVILLE   MOSUNNY   42  15  34 CALM      30.40F
ROANOKE        SUNNY     35  13  40 VRB5      30.39F
BLACKSBURG     MOSUNNY   28  13  54 W7        30.37F
DUBLIN*        MOSUNNY   30  15  53 W9        30.36S
MARION*        CLOUDY    28  15  58 NW12      30.35S WCI  18
HILLSVILLE*    CLOUDY    28  16  61 NW10G17   30.30F WCI  19
RICHLANDS*     FLURRIES  20  10  65 SW3       30.37R
WISE*          CLOUDY    27  12  54 NW7       30.38R
ABINGDON*      CLOUDY    29  16  58 N6        30.39S
$$

MDZ021>025-VAZ099-100-271900-
SOUTHERN MARYLAND AND THE DELMARVA PENINSULA

CITY           SKY/WX    TMP DP  RH WIND       PRES   REMARKS
PATUXENT RIVER LGT SNOW  30  23  75 N10       30.43R WCI  21
BAY BRIDGE APT   N/A     30  18  59 N10       30.44S WCI  21
LEONARDTOWN    CLOUDY    32  14  47 CALM      30.43S
DOVER          CLOUDY    28  22  76 NW10      30.42F WCI  19
GEORGETOWN     CLOUDY    42  20  41 NE6       30.41S
EASTON         CLOUDY    32  27  80 NE9       30.46S
CAMBRIDGE      NOT AVBL
SALISBURY      CLOUDY    35  21  56 N8        30.40S
OCEAN CITY     SUNNY     32  20  61 NE8       30.40F
WALLOPS ISLAND CLOUDY    31  25  78 E10       30.41R WCI  22
ACCOMACK*      CLOUDY    32  23  69 NW8       30.40S
$$

NCZ012>017-030>032-271900-
NORTH CENTRAL AND EASTERN NORTH CAROLINA

CITY           SKY/WX    TMP DP  RH WIND       PRES   REMARKS
ROANOKE RAPIDS FAIR      43  25  49 N7        30.38S
RALEIGH        PTSUNNY   42  25  50 VRB6      30.39S
ELIZABETH CITY SUNNY     43  29  57 N9        30.38S
AHOSKIE*       SUNNY     42  28  56 CALM      30.38F
EDENTON*       SUNNY     44  32  63 N8        30.38S
CURRITUCK*     SUNNY     41  25  52 N7        30.39R
KILL DEVIL HLS SUNNY     40  29  65 N10G16    30.36S
MANTEO         SUNNY     41  25  52 N10       30.37S
CAPE HATTERAS  PTSUNNY   41  29  62 N8G18     30.35R
TARBORO*       FAIR      46  29  52 NW6       30.40S
GOLDSBORO      MOSUNNY   47  37  69 VRB6      30.36F
WASHINGTON     SUNNY     44  32  62 NW9       30.37F
GREENVILLE     MOSUNNY   45  32  61 N5        30.38F
NEW BERN       SUNNY     47  30  51 N10       30.38F
WILMINGTON     MOSUNNY   48  30  49 VRB5      30.37F
$$

VAZ048-271900-
ELSEWHERE

CITY           SKY/WX    TMP DP  RH WIND       PRES   REMARKS
HARRISBURG PA  MOSUNNY   25   7  46 NW8       30.43F
BALTIMORE      MOSUNNY   31  12  45 N8        30.42F
ANNAPOLIS      MOSUNNY   30  15  53 NW8       30.43S
ANDREWS AFB    PTSUNNY   31  13  47 N8        30.41S
PHILADELPHIA   MOSUNNY   29   9  43 NW13G18   30.43F WCI  19
HENDERSON NC   SUNNY     41  19  41 CALM      30.38S
GREENSBORO     PTSUNNY   38  21  50 E3        30.36F
ROCKY MOUNT    SUNNY     45  27  49 NW7       30.38F
$$

VAZ100-271900-
MARINE

STATION/POSITION TIME  TEMP    WIND        PRES    WAVE   SWELL
                       AIR SEA DIR/SP/G            HT/PER HT/PER
                 (UTC) (F)     (DEG/KT/KT) (MB)    (FT/S) (FT/S)
BRANDYWINE LGT   1800   26 30  320/ 11/ 13 1030.0R
CAPE MAY NJ      1800   29 33  310/ 11/ 14 1029.4S
LEWES DE         1800   27 30  360/ 10/ 12 1030.0S
15NM E FENWICK I 1800   30 36              1029.1R   5/10
OCEAN-CITY-INLET 1800   29 31   60/  7/ 12 1029.3R
WACHAPREAGUE VA  1800   31 32  310/  1/  7 1029.4R
THOMAS POINT MD  1800   27 32   40/ 12/ 13 1031.5R
COVE POINT MD    1800   27      30/ 13/ 16 1030.0F
SOLOMONS ISLAND  1800      33                N/A
BISHOPS HEAD MD  1800   32 31  340/  9/ 13 1029.4S
CAMBRIDGE MD     1800   29 32  350/  9/ 11 1030.0R
LEWISETTA VA     1800   27 31              1030.1S
RAPPAHANNOCK LGT 1800          350/ 10/ 11 1030.3R
STINGRAY PT      1800   30     360/  8/ 10   N/A
YORK RVR RNG VA  1800   32      30/ 10/ 11 1029.1S
YORKTOWN VA      1800   30 33   40/ 10/ 12 1029.4F
DOMINION TERM VA 1800   33      90/  6/  8 1029.3R
KIPTOPEKE VA     1800      37   20/  7/ 11   N/A
CHES BAY BRIDGE  1800   32 33  340/ 10/ 11 1029.1R
CAPE HENRY VA    1800   32     330/  6/  7 1028.0R
CHESAPEAKE LGHT  1700   33     340/  8/  9 1029.4R
WILLOUBY STN VA  1800   32      50/ 11/ 13 1029.8R
S CRANEY ISL VA  1800           20/  7/  8 1029.2S
CAPE HENRY BUOY  1800      36                N/A     5/10   2/11
1ST LANDING BUOY 1800   34     340/  8/ 10 1029.0R
OFFSHORE WE BUOY 1800      38                N/A     5/11   5/11
64NM E OF VA BCH 1800   42 60  360/ 14/ 19 1027.0R   7/ 9   5/ 9
DUCK PIER NC     1800   35 34   20/  9/ 10 1027.7R
44100 DUCK FRF   1800      36                N/A     6/11   3/11
44056 DUCK FRF   1800      35                N/A     6/11   3/11
OREGON INLET NC  1800   38 37  350/ 13/ 18 1028.1S
HATTERAS NC      1800   38 40  360/ 16/ 19 1028.0R
CAPE LOOKOUT NC  1800   42      10/ 12/ 14 1027.9S
$$


USA.gov is the U.S. government's official web portal to all federal, state and local government web resources and services.